📊 Raw Sensor Data
Showing records 42726 to 42750 of 85,004 total
| ID | Distance (ft) | Battery V | Battery A | Int Temp (°F) | Int Humid (%) | Ext Temp (°F) | Solar V | RSSI | SNR | Time Stamp |
|---|---|---|---|---|---|---|---|---|---|---|
| 42291 | 15.4 | 3.99 | 0 | 86 | 50 | 79 | 5.10 | -75 | 8 | 06/01/2025 06:00 PM |
| 42290 | 15.4 | 3.99 | 0 | 87 | 49 | 79 | 5.10 | -75 | 8 | 06/01/2025 05:45 PM |
| 42289 | 15.4 | 3.99 | 0 | 89 | 48 | 81 | 5.10 | -76 | 8 | 06/01/2025 05:30 PM |
| 42288 | 15.4 | 3.99 | 0 | 90 | 48 | 82 | 5.10 | -76 | 8 | 06/01/2025 05:15 PM |
| 42287 | 15.4 | 3.99 | 0 | 91 | 47 | 82 | 5.10 | -74 | 8 | 06/01/2025 05:00 PM |
| 42286 | 15.4 | 3.99 | 0 | 92 | 46 | 84 | 5.10 | -73 | 7 | 06/01/2025 04:45 PM |
| 42285 | 15.4 | 3.99 | 0 | 91 | 46 | 83 | 5.10 | -73 | 7 | 06/01/2025 04:30 PM |
| 42284 | 15.4 | 3.99 | 0 | 91 | 45 | 85 | 5.10 | -76 | 8 | 06/01/2025 04:15 PM |
| 42283 | 15.4 | 3.99 | 0 | 91 | 45 | 83 | 5.10 | -75 | 7 | 06/01/2025 04:00 PM |
| 42282 | 15.4 | 3.99 | 0 | 91 | 45 | 84 | 5.10 | -76 | 7 | 06/01/2025 03:45 PM |
| 42281 | 15.4 | 4.13 | 0 | 92 | 44 | 85 | 5.10 | -74 | 7 | 06/01/2025 03:30 PM |
| 42280 | 15.4 | 3.99 | 0 | 92 | 44 | 86 | 5.10 | -74 | 7 | 06/01/2025 03:15 PM |
| 42279 | 15.4 | 3.99 | 0 | 91 | 44 | 85 | 5.10 | -76 | 8 | 06/01/2025 03:00 PM |
| 42278 | 15.5 | 3.99 | 0 | 92 | 44 | 84 | 5.10 | -75 | 8 | 06/01/2025 02:45 PM |
| 42277 | 15.5 | 4.00 | 0 | 93 | 43 | 85 | 5.10 | -75 | 8 | 06/01/2025 02:30 PM |
| 42276 | 15.5 | 4.08 | 0 | 92 | 42 | 87 | 5.10 | -75 | 8 | 06/01/2025 02:15 PM |
| 42275 | 15.5 | 3.99 | 0 | 92 | 42 | 85 | 5.10 | -73 | 8 | 06/01/2025 02:00 PM |
| 42274 | 15.5 | 3.99 | 0 | 92 | 42 | 85 | 5.10 | -75 | 8 | 06/01/2025 01:45 PM |
| 42273 | 15.5 | 3.99 | 0 | 90 | 42 | 84 | 5.10 | -75 | 7 | 06/01/2025 01:30 PM |
| 42272 | 15.5 | 4.07 | 0 | 89 | 42 | 83 | 5.10 | -74 | 7 | 06/01/2025 01:15 PM |
| 42271 | 15.5 | 3.99 | 0 | 88 | 43 | 80 | 5.10 | -74 | 8 | 06/01/2025 01:00 PM |
| 42270 | 15.5 | 3.99 | 0 | 87 | 43 | 84 | 5.10 | -74 | 8 | 06/01/2025 12:45 PM |
| 42269 | 15.5 | 3.99 | 0 | 86 | 43 | 83 | 5.10 | -71 | 8 | 06/01/2025 12:30 PM |
| 42268 | 15.5 | 4.06 | 0 | 84 | 44 | 83 | 5.10 | -73 | 8 | 06/01/2025 12:15 PM |
| 42267 | 15.5 | 4.09 | 0 | 84 | 43 | 82 | 5.10 | -75 | 8 | 06/01/2025 12:00 PM |